Location: Unspecified
(44.0704°N, 88.6889°W)
Time: 06:32:33
(UTC+02:00)

Okean 3 - Pass Details

Date: 02 April 2019
Orbit: 576 x 602 km, 82.5° (Epoch: 21 April)

Event Time Altitude Azimuth Distance (km) Brightness Sun altitude
Exits shadow 10:13:12 14° 95° (E) 1,719 6.2 -32.5°
Maximum altitude 10:13:55 14° 84° (E) 1,693 6.2 -32.4°
Drops below altitude 10° 10:16:10 10° 53° (NE) 1,950 6.9 -32.1°
Sets 10:19:18 0° 28° (NNE) 2,856 8.0 -31.7°
